sat.trackr.live / text

‹ back to catalog

STARLINK-5297

NORAD 54158 · 2022-141B

PAYLOAD ACTIVE UNKNOWN

§ Identity

Operator
Country
US
Launch date
2022-10-28
Launch site
AFWTR
Launch vehicle
Mass (kg)
RCS (m²)

Purposes: comms

External: N2YO · Heavens-Above · Gunter

§ Orbital elements

Epoch: 2026-05-25T02:51:56.752704Z

Period
95.44 min
Inclination
53.2134°
Eccentricity
0.0001575
Mean motion
15.08836643 rev/d
Perigee alt
538.7 km
Apogee alt
540.8 km
Semi-major
6,917.9 km
B*
4.6694e-5
RAAN
31.1463°
Arg perigee
91.7527°
Mean anomaly
268.3645°
Rev number
19,725

§ Raw data

STARLINK-52971 54158U 22141B   26145.11940686  .00000455  00000+0  46694-4 0  99922 54158  53.2134  31.1463 0001575  91.7527 268.3645 15.08836643197252

JSON: /api/v1/satellites/54158 · /tle

For live sub-satellite position, see the globe view (requires WebGL).

§ Visibility from observer

Set your observer location to see the next 7 days of passes ≥ 10°. The values pass through the URL so the page stays shareable.

No JS? Fill the form by hand. The geolocation button needs JavaScript.